When you browse on this site, cookies collect data to enhance your experience and personalize the content and advertising you see.
Visit our Privacy Policy to learn more. By continuing to use the site, you agree to this use of cookies and data.

Tiempo cada hora Cervinia

Hoy, 13 Julio, Lunes

Tiempo Temperatura Precipitaciones Viento Presión Humedad
00:00 +16°C° 0 mm 1 mps 676 mmHg 96%
01:00 +16°C° 0.1 mm 1 mps 675 mmHg 96%
02:00 +15°C° 0.1 mm 1 mps 675 mmHg 96%
03:00 +15°C° 0.1 mm 1 mps 675 mmHg 96%
04:00 +16°C° 0 mm 1 mps 675 mmHg 94%
05:00 +16°C° 0 mm 1 mps 675 mmHg 92%
06:00 +18°C° 0 mm 1 mps 675 mmHg 91%
07:00 +18°C° 0.1 mm 1 mps 675 mmHg 87%
08:00 +19°C° 0.1 mm 1 mps 675 mmHg 82%
09:00 +20°C° 0.1 mm 1 mps 675 mmHg 78%
10:00 +20°C° 0.3 mm 2 mps 675 mmHg 76%
11:00 +20°C° 0.3 mm 2 mps 675 mmHg 75%
12:00 +20°C° 0.3 mm 2 mps 675 mmHg 73%
13:00 +20°C° 0.7 mm 2 mps 675 mmHg 74%
14:00 +20°C° 0.7 mm 2 mps 674 mmHg 74%
15:00 +20°C° 0.7 mm 2 mps 674 mmHg 75%
16:00 +20°C° 0.5 mm 2 mps 674 mmHg 78%
17:00 +19°C° 0.5 mm 2 mps 674 mmHg 80%
18:00 +19°C° 0.5 mm 1 mps 674 mmHg 83%
19:00 +18°C° 0.2 mm 1 mps 673 mmHg 87%
20:00 +16°C° 0.2 mm 1 mps 673 mmHg 91%
21:00 +13°C° 0.2 mm 0 mps 673 mmHg 94%
22:00 +13°C° 0 mm 0 mps 673 mmHg 95%
23:00 +13°C° 0 mm 0 mps 673 mmHg 95%

Mañana, 14 Julio, Martes

Tiempo Temperatura Precipitaciones Viento Presión Humedad
00:00 +12°C° 0 mm 0 mps 672 mmHg 95%
01:00 +12°C° 0 mm 0 mps 672 mmHg 95%
02:00 +12°C° 0 mm 0 mps 672 mmHg 95%
03:00 +12°C° 0 mm 0 mps 671 mmHg 95%
04:00 +13°C° 0 mm 0 mps 672 mmHg 92%
05:00 +14°C° 0 mm 0 mps 672 mmHg 90%
06:00 +15°C° 0 mm 0 mps 672 mmHg 88%
07:00 +18°C° 0.1 mm 1 mps 672 mmHg 82%
08:00 +19°C° 0.1 mm 1 mps 672 mmHg 77%
09:00 +20°C° 0.1 mm 1 mps 672 mmHg 71%
10:00 +20°C° 0.3 mm 1 mps 672 mmHg 69%
11:00 +20°C° 0.3 mm 2 mps 672 mmHg 68%
12:00 +20°C° 0.3 mm 2 mps 672 mmHg 66%
13:00 +20°C° 0.8 mm 2 mps 672 mmHg 71%
14:00 +19°C° 0.8 mm 2 mps 671 mmHg 75%
15:00 +19°C° 0.8 mm 2 mps 671 mmHg 80%
16:00 +19°C° 0.9 mm 1 mps 671 mmHg 83%
17:00 +18°C° 0.9 mm 1 mps 671 mmHg 87%
18:00 +18°C° 0.9 mm 1 mps 670 mmHg 91%
19:00 +16°C° 0.4 mm 1 mps 670 mmHg 91%
20:00 +15°C° 0.4 mm 1 mps 671 mmHg 92%
21:00 +14°C° 0.4 mm 1 mps 671 mmHg 93%
22:00 +14°C° 0.1 mm 1 mps 671 mmHg 93%
23:00 +14°C° 0.1 mm 1 mps 670 mmHg 94%

Pasado mañana, 15 Julio, Miércoles

Tiempo Temperatura Precipitaciones Viento Presión Humedad
00:00 +13°C° 0.1 mm 1 mps 670 mmHg 94%
01:00 +13°C° 0 mm 1 mps 670 mmHg 94%
02:00 +13°C° 0 mm 1 mps 670 mmHg 94%
03:00 +12°C° 0 mm 1 mps 670 mmHg 93%
04:00 +13°C° 0 mm 1 mps 670 mmHg 91%
05:00 +14°C° 0 mm 1 mps 670 mmHg 90%
06:00 +14°C° 0 mm 1 mps 671 mmHg 88%
07:00 +16°C° 0.1 mm 1 mps 671 mmHg 82%
08:00 +18°C° 0.1 mm 1 mps 671 mmHg 76%
09:00 +19°C° 0.1 mm 1 mps 671 mmHg 69%
10:00 +20°C° 0.4 mm 1 mps 671 mmHg 70%
11:00 +19°C° 0.4 mm 2 mps 671 mmHg 71%
12:00 +19°C° 0.4 mm 2 mps 671 mmHg 72%
13:00 +19°C° 0.5 mm 2 mps 671 mmHg 74%
14:00 +19°C° 0.5 mm 2 mps 671 mmHg 75%
15:00 +18°C° 0.5 mm 2 mps 671 mmHg 77%
16:00 +18°C° 0.2 mm 2 mps 671 mmHg 78%
17:00 +17°C° 0.2 mm 2 mps 671 mmHg 80%
18:00 +17°C° 0.2 mm 2 mps 671 mmHg 82%
19:00 +16°C° 0.1 mm 1 mps 671 mmHg 84%
20:00 +15°C° 0.1 mm 1 mps 671 mmHg 87%
21:00 +14°C° 0.1 mm 1 mps 671 mmHg 90%
22:00 +13°C° 0 mm 1 mps 671 mmHg 90%
23:00 +13°C° 0 mm 1 mps 671 mmHg 91%

16 Julio, Jueves

Tiempo Temperatura Precipitaciones Viento Presión Humedad
00:00 +13°C° 0 mm 1 mps 671 mmHg 91%
01:00 +13°C° 0 mm 1 mps 671 mmHg 91%
02:00 +12°C° 0 mm 1 mps 671 mmHg 91%
03:00 +12°C° 0 mm 1 mps 671 mmHg 91%
04:00 +13°C° 0 mm 1 mps 671 mmHg 88%
05:00 +14°C° 0 mm 1 mps 671 mmHg 86%
06:00 +15°C° 0 mm 1 mps 672 mmHg 84%
07:00 +16°C° 0.1 mm 1 mps 672 mmHg 79%
08:00 +17°C° 0.1 mm 2 mps 672 mmHg 75%
09:00 +18°C° 0.1 mm 2 mps 673 mmHg 71%
10:00 +19°C° 0.1 mm 2 mps 673 mmHg 70%
11:00 +19°C° 0.1 mm 2 mps 673 mmHg 69%
12:00 +20°C° 0.1 mm 2 mps 673 mmHg 68%
13:00 +20°C° 0.2 mm 2 mps 672 mmHg 69%
14:00 +20°C° 0.2 mm 2 mps 672 mmHg 71%
15:00 +19°C° 0.2 mm 2 mps 672 mmHg 73%
16:00 +19°C° 0.2 mm 2 mps 672 mmHg 75%
17:00 +18°C° 0.2 mm 2 mps 672 mmHg 78%
18:00 +17°C° 0.2 mm 2 mps 672 mmHg 81%
19:00 +16°C° 0.1 mm 2 mps 672 mmHg 84%
20:00 +15°C° 0.1 mm 2 mps 672 mmHg 87%
21:00 +14°C° 0.1 mm 2 mps 672 mmHg 89%
22:00 +14°C° 0 mm 2 mps 671 mmHg 89%
23:00 +13°C° 0 mm 2 mps 671 mmHg 88%

17 Julio, Viernes

Tiempo Temperatura Precipitaciones Viento Presión Humedad
00:00 +13°C° 0 mm 2 mps 671 mmHg 88%
01:00 +13°C° 0 mm 2 mps 671 mmHg 88%
02:00 +13°C° 0 mm 2 mps 671 mmHg 88%
03:00 +12°C° 0 mm 1 mps 671 mmHg 88%
04:00 +13°C° 0 mm 1 mps 671 mmHg 85%
05:00 +14°C° 0 mm 1 mps 671 mmHg 83%
06:00 +15°C° 0 mm 1 mps 672 mmHg 80%
07:00 +16°C° 0 mm 1 mps 672 mmHg 76%
08:00 +17°C° 0 mm 2 mps 672 mmHg 72%
09:00 +18°C° 0 mm 2 mps 673 mmHg 67%
10:00 +19°C° 0.1 mm 2 mps 673 mmHg 66%
11:00 +20°C° 0.1 mm 2 mps 673 mmHg 65%
12:00 +20°C° 0.1 mm 2 mps 673 mmHg 64%
13:00 +20°C° 0.1 mm 2 mps 672 mmHg 65%
14:00 +20°C° 0.1 mm 3 mps 672 mmHg 66%
15:00 +20°C° 0.1 mm 3 mps 672 mmHg 66%
16:00 +19°C° 0.1 mm 3 mps 672 mmHg 70%
17:00 +19°C° 0.1 mm 2 mps 672 mmHg 74%
18:00 +18°C° 0.1 mm 2 mps 672 mmHg 77%
19:00 +16°C° 0 mm 2 mps 672 mmHg 81%
20:00 +15°C° 0 mm 1 mps 672 mmHg 84%
21:00 +13°C° 0 mm 1 mps 672 mmHg 88%
22:00 +13°C° 0 mm 1 mps 672 mmHg 88%
23:00 +12°C° 0 mm 1 mps 672 mmHg 87%

18 Julio, Sábado

Tiempo Temperatura Precipitaciones Viento Presión Humedad
00:00 +12°C° 0 mm 1 mps 672 mmHg 87%
01:00 +12°C° 0 mm 1 mps 671 mmHg 85%
02:00 +12°C° 0 mm 1 mps 671 mmHg 84%
03:00 +11°C° 0 mm 1 mps 671 mmHg 82%
04:00 +13°C° 0 mm 1 mps 671 mmHg 77%
05:00 +14°C° 0 mm 1 mps 672 mmHg 73%
06:00 +16°C° 0 mm 1 mps 672 mmHg 68%
07:00 +19°C° 0 mm 1 mps 672 mmHg 61%
08:00 +20°C° 0 mm 2 mps 673 mmHg 54%
09:00 +21°C° 0 mm 2 mps 673 mmHg 47%
10:00 +23°C° 0 mm 2 mps 673 mmHg 47%
11:00 +24°C° 0 mm 2 mps 673 mmHg 47%
12:00 +25°C° 0 mm 2 mps 673 mmHg 47%
13:00 +25°C° 0 mm 3 mps 673 mmHg 51%
14:00 +24°C° 0 mm 3 mps 672 mmHg 54%
15:00 +24°C° 0 mm 3 mps 672 mmHg 57%
16:00 +23°C° 0.1 mm 2 mps 672 mmHg 64%
17:00 +21°C° 0.1 mm 2 mps 672 mmHg 71%
18:00 +20°C° 0.1 mm 2 mps 672 mmHg 78%
19:00 +18°C° 0 mm 2 mps 671 mmHg 82%
20:00 +18°C° 0 mm 1 mps 671 mmHg 86%
21:00 +15°C° 0 mm 1 mps 671 mmHg 90%
22:00 +14°C° 0 mm 1 mps 671 mmHg 89%
23:00 +14°C° 0 mm 1 mps 671 mmHg 88%
Mostrar más